K4FB Weather Reports


time (UTC)temp
C
wind
direction
speed
KPH
gust
KPH
rain 1hr
cm
rain 24hr
cm
rain mn
cm
humidity
%
barometer
mb
20260901225013 29 19 3.2 12.9 0.00 0.00 0.00 71 1016.5
20260901224540 29 13 4.8 12.9 0.00 0.00 0.00 71 1016.5
20260901224010 29 23 1.6 9.7 0.00 0.00 0.00 72 1016.4
20260901223517 30 335 1.6 12.9 0.00 0.00 0.00 72 1016.4
20260901223045 30 16 3.2 12.9 0.00 0.00 0.00 72 1016.5
20260901222519 30 19 3.2 12.9 0.00 0.00 0.00 72 1016.5
20260901222011 30 9 0.0 9.7 0.00 0.00 0.00 72 1016.4
20260901221531 30 44 0.0 12.9 0.00 0.00 0.00 72 1016.3
20260901221011 30 87 1.6 17.7 0.00 0.00 0.00 71 1016.4
20260901220514 30 82 1.6 17.7 0.00 0.00 0.00 70 1016.4
20260901220006 30 71 6.4 14.5 0.00 0.00 0.00 70 1016.3
20260901215505 30 71 1.6 11.3 0.00 0.00 0.00 70 1016.2
20260901215002 30 17 0.0 17.7 0.00 0.00 0.00 70 1016.2
20260901214505 30 76 4.8 17.7 0.00 0.00 0.00 69 1016.1
20260901214004 31 360 3.2 17.7 0.00 0.00 0.00 69 1016.1
20260901213508 31 19 8.0 16.1 0.00 0.00 0.00 68 1016.0
20260901213012 31 43 1.6 16.1 0.00 0.00 0.00 66 1015.9
20260901212504 32 64 4.8 16.1 0.00 0.00 0.00 66 1016.1
20260901212004 32 32 4.8 16.1 0.00 0.00 0.00 65 1016.1
20260901211524 32 13 4.8 20.9 0.00 0.00 0.00 66 1016.0
20260901211010 32 78 4.8 25.7 0.00 0.00 0.00 67 1016.1
20260901210503 32 5 9.7 25.7 0.00 0.00 0.00 67 1016.1
20260901210024 32 49 8.0 20.9 0.00 0.00 0.00 67 1016.0
20260901205510 32 59 9.7 17.7 0.00 0.00 0.00 66 1016.0
20260901205006 32 344 6.4 20.9 0.00 0.00 0.00 67 1016.3
20260901204515 32 58 8.0 20.9 0.00 0.00 0.00 68 1016.1
20260901204003 32 130 3.2 20.9 0.00 0.00 0.00 71 1016.1
20260901203503 32 36 6.4 17.7 0.00 0.00 0.00 73 1015.9
20260901203006 31 32 8.0 16.1 0.00 0.00 0.00 74 1016.0
20260901202506 31 360 1.6 16.1 0.00 0.00 0.00 76 1016.0
20260901202006 30 30 1.6 16.1 0.00 0.00 0.00 75 1016.2
20260901201515 30 69 3.2 16.1 0.00 0.00 0.00 76 1016.2
20260901201003 30 57 1.6 16.1 0.00 0.00 0.00 76 1016.3
20260901200507 30 61 3.2 16.1 0.00 0.00 0.00 76 1016.3
20260901200039 30 15 0.0 12.9 0.00 0.00 0.00 76 1016.2
20260901195504 30 40 3.2 11.3 0.00 0.00 0.00 75 1016.3
20260901195003 30 34 1.6 9.7 0.00 0.00 0.00 74 1016.3
20260901194523 31 22 1.6 8.0 0.00 0.00 0.00 73 1016.3
20260901194008 31 347 4.8 14.5 0.00 0.00 0.00 72 1016.3
20260901193503 31 21 4.8 14.5 0.00 0.00 0.00 71 1016.3
20260901193008 31 342 6.4 14.5 0.00 0.00 0.00 74 1016.3
20260901192505 31 67 3.2 9.7 0.00 0.00 0.00 78 1016.4
20260901192005 30 339 1.6 9.7 0.00 0.00 0.00 77 1016.5
20260901191513 30 12 3.2 9.7 0.00 0.00 0.00 79 1016.5
20260901191010 29 5 1.6 6.4 0.00 0.00 0.00 80 1016.6
20260901190506 29 329 0.0 6.4 0.00 0.00 0.00 80 1016.6
20260901190010 28 313 0.0 8.0 0.00 0.00 0.00 80 1016.6
20260901185508 28 20 0.0 8.0 0.00 0.00 0.00 80 1016.8
20260901185011 28 347 1.6 12.9 0.00 0.00 0.00 80 1017.0
20260901184525 28 331 0.0 12.9 0.00 0.00 0.00 80 1017.1
20260901184004 28 13 6.4 12.9 0.00 0.00 0.00 79 1017.1
20260901183511 28 343 1.6 8.0 0.00 0.00 0.00 79 1017.2
20260901183022 28 360 0.0 9.7 0.00 0.00 0.00 79 1017.2
20260901182503 28 352 1.6 9.7 0.00 0.00 0.00 78 1017.3
20260901182008 28 334 1.6 12.9 0.00 0.00 0.00 78 1017.2
20260901181509 28 350 1.6 12.9 0.00 0.00 0.00 78 1017.3
20260901181004 28 23 0.0 9.7 0.00 0.00 0.00 79 1017.3
20260901180506 28 360 0.0 9.7 0.00 0.00 0.00 78 1017.4
20260901180026 28 313 1.6 12.9 0.00 0.00 0.00 77 1017.5
20260901175508 28 340 3.2 12.9 0.00 0.00 0.00 76 1017.6
20260901175004 29 304 1.6 14.5 0.00 0.00 0.00 75 1017.7
20260901174518 29 327 3.2 16.1 0.00 0.00 0.00 74 1017.7
20260901174011 29 340 3.2 17.7 0.00 0.00 0.00 75 1017.8
20260901173514 30 324 9.7 19.3 0.00 0.00 0.00 74 1017.9
20260901173016 31 13 6.4 20.9 0.00 0.00 0.00 74 1017.9
20260901172508 31 36 6.4 27.4 0.00 0.00 0.00 76 1018.0
20260901172015 30 348 12.9 27.4 0.00 0.00 0.00 73 1018.1
20260901171510 30 26 14.5 30.6 0.00 0.00 0.00 71 1018.0
20260901171009 31 347 16.1 30.6 0.00 0.00 0.00 74 1017.9
20260901170507 30 46 8.0 27.4 0.00 0.00 0.00 75 1017.9
20260901170024 31 340 16.1 27.4 0.00 0.00 0.00 72 1018.0
20260901165504 31 51 8.0 27.4 0.00 0.00 0.00 72 1017.9
20260901165010 32 5 1.6 9.7 0.00 0.00 0.00 71 1018.0
20260901164516 32 318 0.0 6.4 0.00 0.00 0.00 71 1018.0
20260901164008 32 360 0.0 6.4 0.00 0.00 0.00 74 1017.9
20260901163510 31 86 0.0 4.8 0.00 0.00 0.00 75 1018.0
20260901163027 31 105 0.0 4.8 0.00 0.00 0.00 72 1018.0
20260901162512 31 327 0.0 1.6 0.00 0.00 0.00 72 1018.0
20260901162004 31 42 0.0 6.4 0.00 0.00 0.00 72 1018.0
20260901161524 31 11 0.0 6.4 0.00 0.00 0.00 73 1018.0
20260901161015 31 5 0.0 6.4 0.00 0.00 0.00 73 1017.9
20260901160513 31 73 0.0 1.6 0.00 0.00 0.00 75 1018.0
20260901160030 31 76 0.0 1.6 0.00 0.00 0.00 73 1018.0
20260901155513 31 352 0.0 1.6 0.00 0.00 0.00 74 1018.2
20260901155005 31 319 0.0 6.4 0.00 0.00 0.00 74 1018.2
20260901154516 31 11 0.0 8.0 0.00 0.00 0.00 74 1018.3
20260901154008 31 50 0.0 8.0 0.00 0.00 0.00 74 1018.2
20260901153508 31 44 0.0 6.4 0.00 0.00 0.00 75 1018.3
20260901153024 31 67 1.6 6.4 0.00 0.00 0.00 75 1018.4
20260901152508 32 331 0.0 3.2 0.00 0.00 0.00 76 1018.3
20260901152015 31 61 0.0 3.2 0.00 0.00 0.00 77 1018.4
20260901151529 31 340 0.0 3.2 0.00 0.00 0.00 77 1018.4
20260901151007 31 79 0.0 1.6 0.00 0.00 0.00 78 1018.4
20260901150512 31 50 0.0 1.6 0.00 0.00 0.00 80 1018.3
20260901150030 31 32 0.0 1.6 0.00 0.00 0.00 79 1018.3
20260901145512 31 51 0.0 1.6 0.00 0.00 0.00 80 1018.4
20260901145008 30 40 0.0 1.6 0.00 0.00 0.00 79 1018.4
20260901144527 30 334 0.0 1.6 0.00 0.00 0.00 82 1018.3
20260901144007 30 68 0.0 4.8 0.00 0.00 0.00 82 1018.3
20260901143508 30 9 0.0 4.8 0.00 0.00 0.00 84 1018.4
20260901143020 29 28 0.0 3.2 0.00 0.00 0.00 85 1018.3
20260901142508 29 50 0.0 3.2 0.00 0.00 0.00 84 1018.2
20260901142009 28 26 0.0 1.6 0.00 0.00 0.00 86 1018.1
20260901141534 28 13 0.0 1.6 0.00 0.00 0.00 87 1018.2
20260901141014 28 360 0.0 1.6 0.00 0.00 0.00 87 1018.2
20260901140512 28 9 0.0 1.6 0.00 0.00 0.00 88 1018.1
20260901140031 28 360 0.0 1.6 0.00 0.00 0.00 90 1018.1
20260901135512 27 40 0.0 3.2 0.00 0.00 0.00 91 1018.1
20260901135019 27 27 0.0 3.2 0.00 0.00 0.00 91 1018.2
20260901134531 27 108 0.0 1.6 0.00 0.00 0.00 92 1018.1
20260901134008 27 333 0.0 4.8 0.00 0.00 0.00 92 1018.0
20260901133513 26 352 0.0 4.8 0.00 0.00 0.00 93 1018.0
20260901133038 26 11 0.0 1.6 0.00 0.00 0.00 93 1018.0
20260901132511 26 360 0.0 1.6 0.00 0.00 0.00 93 1018.1
20260901132011 26 53 0.0 4.8 0.00 0.00 0.00 93 1018.0
20260901131531 26 81 0.0 4.8 0.00 0.00 0.00 93 1018.0
20260901131011 26 38 0.0 1.6 0.00 0.00 0.00 94 1017.9
20260901130504 26 64 0.0 1.6 0.00 0.00 0.00 94 1017.9
20260901130006 26 9 0.0 1.6 0.00 0.00 0.00 95 1017.8
20260901125503 26 34 0.0 1.6 0.00 0.00 0.00 95 1017.9
20260901125005 25 41 0.0 1.6 0.00 0.00 0.00 95 1017.8
20260901124509 25 27 0.0 3.2 0.00 0.00 0.00 95 1017.8
20260901124002 25 44 0.0 3.2 0.00 0.00 0.00 95 1017.7
20260901123507 25 52 0.0 1.6 0.00 0.00 0.00 1017.6
20260901123014 25 333 0.0 0.0 0.00 0.00 0.00 95 1017.5
20260901122504 25 332 0.0 0.0 0.00 0.00 0.00 95 1017.6
20260901122003 25 332 0.0 0.0 0.00 0.00 0.00 95 1017.5
20260901121520 25 332 0.0 0.0 0.00 0.00 0.00 95 1017.5
20260901121011 25 332 0.0 0.0 0.00 0.00 0.00 95 1017.5
20260901120504 25 332 0.0 0.0 0.00 0.00 0.00 95 1017.5
20260901120005 25 332 0.0 0.0 0.00 0.00 0.00 95 1017.4
20260901115503 25 332 0.0 0.0 0.00 0.00 0.00 95 1017.4
20260901115003 25 329 0.0 0.0 0.00 0.00 0.00 95 1017.3
20260901114506 25 329 0.0 0.0 0.00 0.00 0.00 95 1017.3
20260901114004 25 329 0.0 0.0 0.00 0.00 0.00 95 1017.3
20260901113504 25 329 0.0 0.0 0.00 0.00 0.00 95 1017.2
20260901113006 25 331 0.0 0.0 0.00 0.00 0.00 95 1017.2
20260901112503 24 337 0.0 0.0 0.00 0.00 0.00 94 1017.2
20260901112011 24 337 0.0 1.6 0.00 0.00 0.00 94 1017.2
20260901111518 24 337 0.0 1.6 0.00 0.00 0.00 94 1017.1
20260901111004 24 328 0.0 0.0 0.00 0.00 0.00 95 1017.2
20260901110506 24 337 0.0 1.6 0.00 0.00 0.00 95 1017.1
20260901110026 24 336 0.0 1.6 0.00 0.00 0.00 95 1017.1
20260901105503 24 331 0.0 0.0 0.00 0.00 0.00 94 1017.1
20260901105006 24 332 0.0 0.0 0.00 0.00 0.00 94 1017.0
20260901104506 24 331 0.0 0.0 0.00 0.00 0.00 94 1016.9
20260901104004 24 331 0.0 0.0 0.00 0.00 0.00 94 1016.9
20260901103504 24 331 0.0 0.0 0.00 0.00 0.00 94 1016.9
20260901103011 24 333 0.0 0.0 0.00 0.00 0.00 94 1017.0
20260901102505 23 333 0.0 0.0 0.00 0.00 0.00 94 1016.8
20260901102003 23 334 0.0 0.0 0.00 0.00 0.00 94 1016.8
20260901101514 23 341 0.0 0.0 0.00 0.00 0.00 94 1016.7
20260901101008 23 350 0.0 0.0 0.00 0.00 0.00 94 1016.7
20260901100508 23 350 0.0 0.0 0.00 0.00 0.00 94 1016.6
20260901100011 23 360 0.0 0.0 0.00 0.00 0.00 94 1016.5
20260901095507 23 360 0.0 0.0 0.00 0.00 0.00 93 1016.6
20260901095012 23 360 0.0 0.0 0.00 0.00 0.00 94 1016.5
20260901094506 23 360 0.0 0.0 0.00 0.00 0.00 94 1016.4
20260901094004 23 360 0.0 0.0 0.00 0.00 0.00 94 1016.4
20260901093504 23 360 0.0 0.0 0.00 0.00 0.00 93 1016.4
20260901093008 23 360 0.0 0.0 0.00 0.00 0.00 93 1016.4
20260901092504 23 360 0.0 0.0 0.00 0.00 0.00 93 1016.4
20260901092007 23 360 0.0 0.0 0.00 0.00 0.00 93 1016.4
20260901091514 23 360 0.0 0.0 0.00 0.00 0.00 93 1016.3
20260901091005 23 360 0.0 0.0 0.00 0.00 0.00 93 1016.2
20260901090505 23 360 0.0 0.0 0.00 0.00 0.00 93 1016.2
20260901090028 23 360 0.0 0.0 0.00 0.00 0.00 93 1016.3
20260901085507 23 360 0.0 0.0 0.00 0.00 0.00 93 1016.3
20260901085004 24 360 0.0 0.0 0.00 0.00 0.00 93 1016.3
20260901084516 24 360 0.0 0.0 0.00 0.00 0.00 93 1016.3
20260901084011 24 352 0.0 0.0 0.00 0.00 0.00 93 1016.2
20260901083517 24 352 0.0 0.0 0.00 0.00 0.00 93 1016.2
20260901083028 24 352 0.0 0.0 0.00 0.00 0.00 93 1016.3
20260901082510 24 352 0.0 0.0 0.00 0.00 0.00 93 1016.2
20260901082003 24 352 0.0 0.0 0.00 0.00 0.00 93 1016.1
20260901081515 24 352 0.0 0.0 0.00 0.00 0.00 93 1016.1
20260901081006 24 352 0.0 0.0 0.00 0.00 0.00 93 1016.1
20260901080507 24 352 0.0 0.0 0.00 0.00 0.00 93 1016.2
20260901080017 23 352 0.0 0.0 0.00 0.00 0.00 93 1016.4
20260901075506 24 352 0.0 0.0 0.00 0.00 0.00 93 1016.4
20260901075011 24 352 0.0 0.0 0.00 0.00 0.00 92 1016.3
20260901074530 24 352 0.0 0.0 0.00 0.00 0.00 93 1016.3
20260901074004 24 352 0.0 0.0 0.00 0.00 0.00 93 1016.3
20260901073507 24 352 0.0 0.0 0.00 0.00 0.00 93 1016.4
20260901073036 24 352 0.0 0.0 0.00 0.00 0.00 93 1016.4
20260901072516 24 352 0.0 0.0 0.00 0.00 0.00 92 1016.4
20260901072003 24 352 0.0 0.0 0.00 0.00 0.00 93 1016.4
20260901071524 24 352 0.0 0.0 0.00 0.00 0.00 93 1016.5
20260901071005 24 352 0.0 0.0 0.00 0.00 0.00 92 1016.5
20260901070504 24 352 0.0 0.0 0.00 0.00 0.00 92 1016.6
20260901070022 24 352 0.0 0.0 0.00 0.00 0.00 92 1016.7
20260901065506 24 352 0.0 0.0 0.00 0.00 0.00 92 1016.7
20260901065006 24 352 0.0 0.0 0.00 0.00 0.00 92 1016.7
20260901064527 24 352 0.0 0.0 0.00 0.00 0.00 92 1016.8
20260901064010 24 351 0.0 0.0 0.00 0.00 0.00 92 1017.0
20260901063509 24 352 0.0 1.6 0.00 0.00 0.00 92 1017.0
20260901063027 24 360 0.0 1.6 0.00 0.00 0.00 92 1017.1
20260901062504 24 12 0.0 1.6 0.00 0.00 0.00 92 1017.2
20260901062012 24 15 0.0 1.6 0.00 0.00 0.00 92 1017.2
20260901061533 24 360 0.0 1.6 0.00 0.00 0.00 92 1017.3
20260901061007 25 351 0.0 1.6 0.00 0.00 0.00 92 1017.4
20260901060509 25 352 0.0 1.6 0.00 0.00 0.00 92 1017.7
20260901060032 25 360 0.0 1.6 0.00 0.00 0.00 92 1017.7
20260901055504 25 21 0.0 1.6 0.00 0.00 0.00 92 1017.7
20260901055007 25 35 0.0 0.0 0.00 0.00 0.00 92 1017.7
20260901054519 25 352 0.0 0.0 0.00 0.00 0.00 92 1017.8
20260901054006 25 352 0.0 0.0 0.00 0.00 0.00 92 1017.8
20260901053505 25 360 0.0 0.0 0.00 0.00 0.00 92 1017.9
20260901053023 25 352 0.0 0.0 0.00 0.00 0.00 92 1017.9
20260901052509 25 352 0.0 1.6 0.00 0.00 0.00 91 1018.0
20260901052009 25 360 0.0 1.6 0.00 0.00 0.00 91 1018.1
20260901051520 25 352 0.0 1.6 0.00 0.00 0.00 91 1018.2
20260901051012 25 352 0.0 0.0 0.00 0.00 0.00 91 1018.2
20260901050513 25 351 0.0 0.0 0.00 0.00 0.00 91 1018.2
20260901050033 25 352 0.0 1.6 0.00 0.00 0.00 91 1018.3
20260901045509 25 360 0.0 1.6 0.00 0.00 0.00 91 1018.3
20260901045014 25 352 0.0 1.6 0.00 0.00 0.00 91 1018.3
20260901044533 25 15 0.0 0.0 0.00 0.00 0.00 91 1018.3
20260901044009 25 15 0.0 1.6 0.00 0.00 0.00 91 1018.3
20260901043506 25 317 0.0 1.6 0.00 0.00 0.00 1018.3
20260901043026 25 308 0.0 1.6 0.00 0.00 0.00 91 1018.4
20260901042509 25 306 0.0 0.0 0.00 0.00 0.00 91 1018.4
20260901042007 25 306 0.0 0.0 0.00 0.00 0.00 91 1018.3
20260901041530 25 306 0.0 0.0 0.00 0.00 0.00 91 1018.5
20260901041011 25 306 0.0 0.0 0.00 0.00 0.00 91 1018.6
20260901040507 25 295 0.0 0.0 0.00 0.00 0.00 91 1018.5
20260901040033 25 295 0.0 0.0 0.00 0.00 0.00 90 1018.6
20260901035512 25 295 0.0 0.0 0.00 0.00 0.00 90 1018.5
20260901035016 25 295 0.0 0.0 0.00 0.00 0.00 90 1018.5
20260901034532 25 295 0.0 0.0 0.00 0.00 0.00 90 1018.4
20260901034011 25 295 0.0 0.0 0.00 0.00 0.00 90 1018.5
20260901033513 25 295 0.0 0.0 0.00 0.00 0.00 90 1018.5
20260901033020 25 295 0.0 0.0 0.00 0.00 0.00 90 1018.6
20260901032511 25 295 0.0 0.0 0.00 0.00 0.00 90 1018.6
20260901032009 25 295 0.0 0.0 0.00 0.00 0.00 1018.7
20260901031543 25 295 0.0 0.0 0.00 0.00 0.00 1018.7
20260901031008 25 295 0.0 0.0 0.00 0.00 0.00 1018.7
20260901030514 25 295 0.0 0.0 0.00 0.00 0.00 89 1018.6
20260901030030 25 295 0.0 0.0 0.00 0.00 0.00 89 1018.7
20260901025514 25 295 0.0 0.0 0.00 0.00 0.00 89 1018.7
20260901025012 25 294 0.0 0.0 0.00 0.00 0.00 89 1018.7
20260901024533 25 294 0.0 0.0 0.00 0.00 0.00 89 1018.6
20260901024016 25 294 0.0 0.0 0.00 0.00 0.00 89 1018.6
20260901023508 25 294 0.0 0.0 0.00 0.00 0.00 88 1018.5
20260901023030 25 294 0.0 0.0 0.00 0.00 0.00 88 1018.5
20260901022520 25 294 0.0 0.0 0.00 0.00 0.00 89 1018.3
20260901022020 25 309 0.0 0.0 0.00 0.00 0.00 88 1018.3
20260901021524 25 302 0.0 0.0 0.00 0.00 0.00 88 1018.2
20260901021012 25 304 0.0 0.0 0.00 0.00 0.00 88 1018.1
20260901020509 26 304 0.0 0.0 0.00 0.00 0.00 88 1018.1
20260901020029 26 304 0.0 0.0 0.00 0.00 0.00 88 1018.1
20260901015514 26 304 0.0 0.0 0.00 0.00 0.00 88 1018.1
20260901015016 26 304 0.0 0.0 0.00 0.00 0.00 88 1018.0
20260901014531 26 13 0.0 0.0 0.00 0.00 0.00 87 1018.0
20260901014009 26 13 0.0 0.0 0.00 0.00 0.00 87 1017.9
20260901013519 26 13 0.0 0.0 0.00 0.00 0.00 87 1017.9
20260901013033 26 13 0.0 0.0 0.00 0.00 0.00 87 1017.8
20260901012509 26 13 0.0 1.6 0.00 0.00 0.00 87 1017.8
20260901012018 26 13 0.0 1.6 0.00 0.00 0.00 87 1017.6
20260901011532 26 55 0.0 0.0 0.00 0.00 0.00 87 1017.6
20260901011018 26 72 0.0 0.0 0.00 0.00 0.00 87 1017.6
20260901010508 26 72 0.0 0.0 0.00 0.00 0.00 87 1017.5
20260901010035 26 74 0.0 0.0 0.00 0.00 0.00 86 1017.4
20260901005513 26 74 0.0 0.0 0.00 0.00 0.00 86 1017.2
20260901005011 26 74 0.0 0.0 0.00 0.00 0.00 86 1017.2
20260901004534 26 75 0.0 0.0 0.00 0.00 0.00 86 1017.2
20260901004015 26 75 0.0 0.0 0.00 0.00 0.00 86 1017.3
20260901003512 26 75 0.0 0.0 0.00 0.00 0.00 85 1017.3
20260901003027 26 75 0.0 0.0 0.00 0.00 0.00 85 1017.3
20260901002512 26 75 0.0 0.0 0.00 0.00 0.00 85 1017.4
20260901002017 26 75 0.0 1.6 0.00 0.00 0.00 85 1017.4
20260901001534 26 75 0.0 1.6 0.00 0.00 0.00 85 1017.4
20260901001012 26 75 0.0 1.6 0.00 0.00 0.00 84 1017.4
20260901000521 26 75 0.0 1.6 0.00 0.00 0.00 84 1017.4
20260901000033 26 81 0.0 1.6 0.00 0.00 0.00 84 1017.4
20260831235511 26 84 0.0 1.6 0.00 0.00 0.00 84 1017.5
20260831235011 26 87 0.0 1.6 0.00 0.00 0.00 84 1017.5
20260831234527 26 111 0.0 1.6 0.00 0.00 0.00 84 1017.4
20260831234011 26 95 0.0 1.6 0.00 0.00 0.00 84 1017.3
20260831233516 26 124 0.0 0.0 0.00 0.00 0.00 84 1017.4
20260831233030 26 107 0.0 0.0 0.00 0.00 0.00 84 1017.4
20260831232514 26 107 0.0 0.0 0.00 0.00 0.00 84 1017.3
20260831232011 26 17 0.0 3.2 0.00 0.00 0.00 84 1017.2
20260831231536 26 72 0.0 4.8 0.00 0.00 0.00 84 1017.3
20260831231019 26 59 0.0 4.8 0.00 0.00 0.00 84 1017.3
20260831230519 26 49 0.0 4.8 0.00 0.00 0.00 83 1017.4
20260831230034 26 47 0.0 4.8 0.00 0.00 0.00 84 1017.4
20260831225515 26 46 0.0 4.8 0.00 0.00 0.00 83 1017.4